This demonstration page uses our WeatherBlox Daily Observations layout. Learn more.

Left ArrowRight Arrow

36.19886, -115.1175

Hourly Observations for February 14, 2021

Temp ( °F °C ) Dew Point ( °F °C ) Humidity (%) Winds ( mph kmh ) Pressure ( in mb ) Visibility ( mi km ) Precip ( " mm )
12:53 am 00:53 Clear with Light Rain 51 10.6 15 -9.4 24 24 NNW 20 31 29.74 1007 10 16 0.00 0.00
1:53 am 01:53 Clear 50 10 15 -9.4 25 25 NNW 25 41 29.75 1007 10 16 0.00 0.00
2:53 am 02:53 Clear with Light Rain 50 10 16 -8.9 26 26 NNW 28 44 29.76 1008 10 16 0.00 0.00
3:53 am 03:53 Clear 49 9.4 16 -8.9 27 27 NNW 24 39 29.79 1009 10 16 0.00 0.00
4:53 am 04:53 Clear 48 8.9 18 -7.8 30 30 NW 24 39 29.80 1009 10 16 N/A
5:53 am 05:53 Clear 48 8.9 17 -8.3 29 29 NNW 18 30 29.83 1010 10 16 N/A
6:53 am 06:53 Sunny 47 8.3 17 -8.3 30 30 NNW 14 22 29.85 1011 10 16 N/A
7:53 am 07:53 Sunny 50 10 15 -9.4 25 25 NNW 15 24 29.88 1012 10 16 N/A
8:53 am 08:53 Sunny 52 11.1 15 -9.4 23 23 NW 20 31 29.90 1013 10 16 N/A
9:53 am 09:53 Sunny 54 12.2 14 -10 20 20 NNW 21 33 29.91 1013 10 16 0.00 0.00
10:53 am 10:53 Sunny 56 13.3 14 -10 19 19 NW 23 37 29.90 1013 10 16 N/A
11:53 am 11:53 Sunny 58 14.4 13 -10.6 17 17 NW 22 35 29.89 1012 10 16 N/A
12:53 pm 12:53 Sunny 58 14.4 12 -11.1 16 16 NW 20 31 29.88 1012 10 16 N/A
1:53 pm 13:53 Sunny 60 15.6 11 -11.7 14 14 WNW 20 31 29.86 1011 10 16 N/A
2:53 pm 14:53 Sunny 60 15.6 11 -11.7 14 14 NW 17 28 29.86 1011 10 16 N/A
3:53 pm 15:53 Sunny 58 14.4 11 -11.7 15 15 NW 15 24 29.86 1011 10 16 N/A
4:53 pm 16:53 Sunny 59 15 12 -11.1 15 15 NW 14 22 29.89 1012 10 16 N/A
5:53 pm 17:53 Clear 56 13.3 12 -11.1 17 17 W 3 6 29.90 1013 10 16 N/A
6:53 pm 18:53 Clear 54 12.2 12 -11.1 19 19 NNE 7 11 29.94 1014 10 16 N/A
7:53 pm 19:53 Clear 51 10.6 12 -11.1 21 21 W 6 9 29.95 1014 10 16 N/A
8:53 pm 20:53 Clear 49 9.4 13 -10.6 23 23 ESE 6 9 29.95 1014 10 16 N/A
9:53 pm 21:53 Clear 49 9.4 16 -8.9 27 27 WSW 5 7 29.99 1016 10 16 N/A
10:53 pm 22:53 Clear 47 8.3 17 -8.3 30 30 SE 5 7 29.97 1015 10 16 N/A
11:53 pm 23:53 Clear 48 8.9 17 -8.3 29 29 SSE 7 11 29.97 1015 10 16 N/A

Powered by AerisWeather